Meteo Giornale » Osservazioni meteo Russia » Kaliningrad/Khrabrovo
ore: 18:30 - Osservazioni Meteo Kaliningrad/Khrabrovo
Lat. 54° 43' N Lon. 20° 30' E Alt. 21 metri s.l.m.
18 °C
Nuvoloso
Temp. 24 Ore
14 °C
20 °C
Ovest
21.6 Km/h
Dew point 15 °C
Umidità 82 %
Visibilità 10 Km
Il sole sorge alle ore 05:45
Il sole tramonta alle ore 19:31
| Data e Ora | Cielo e Fenomeni | T °C | DP °C | Um. % | Pres. hPa | Vis. km | Vento km/h | |
|---|---|---|---|---|---|---|---|---|
| Oggi h: 18:30 | Nuvoloso | 18 | 15 | 82 | 1012 | 10 | O 21.6 | |
| Oggi h: 18:00 | Molto Nuvoloso | 18 | 15 | 82 | 1012 | 10 | O 21.6 | |
| Oggi h: 17:30 | Molto Nuvoloso | 19 | 15 | 77 | 1012 | 10 | O 25.2 | |
| Oggi h: 17:00 | Molto Nuvoloso | 20 | 15 | 72 | 1012 | 10 | O 25.2 | |
| Oggi h: 16:54 | Molto Nuvoloso | 20 | 16 | 77 | 1012 | 10 | O 25.2 | |
| Oggi h: 16:30 | Pioggia | 18 | 16 | 88 | 1012 | 10 | O 21.6 | |
| Oggi h: 16:00 | Molto Nuvoloso | 18 | 16 | 88 | 1012 | 10 | O 21.6 | |
| Oggi h: 15:30 | Pioggia | 17 | 15 | 88 | 1012 | 10 | O 21.6 | |
| Oggi h: 15:00 | Molto Nuvoloso | 18 | 14 | 77 | 1012 | 10 | O 32.4 | |
| Oggi h: 14:30 | Molto Nuvoloso | 19 | 15 | 77 | 1011 | 10 | O 25.2 | |
| Oggi h: 14:00 | Molto Nuvoloso | 19 | 15 | 77 | 1011 | 10 | O 28.8 | |
| Oggi h: 13:30 | Molto Nuvoloso | 19 | 14 | 72 | 1011 | 10 | O/SO 25.2 | |
| Oggi h: 13:00 | Molto Nuvoloso | 19 | 14 | 72 | 1011 | 10 | O 28.8 | |
| Oggi h: 12:30 | Molto Nuvoloso | 19 | 15 | 77 | 1011 | 10 | O 32.4 | |
| Oggi h: 12:00 | Molto Nuvoloso | 20 | 16 | 77 | 1010 | 10 | O 32.4 | |
| Oggi h: 11:30 | Molto Nuvoloso | 19 | 16 | 82 | 1010 | 10 | O/SO 25.2 | |
| Oggi h: 11:17 | Molto Nuvoloso | 20 | 17 | 82 | 1010 | 10 | O 25.2 | |
| Oggi h: 11:00 | Molto Nuvoloso | 18 | 17 | 93 | 1010 | 10 | O 21.6 | |
| Oggi h: 10:30 | Molto Nuvoloso | 19 | 17 | 88 | 1010 | 10 | O 18 | |
| Oggi h: 10:00 | Molto Nuvoloso | 18 | 18 | 100 | 1010 | 10 | O 18 | |
| Oggi h: 09:30 | Pioggia | 18 | 18 | 100 | 1010 | 10 | O 18 | |
| Oggi h: 09:00 | Molto Nuvoloso | 18 | 17 | 93 | 1010 | 10 | O/SO 18 | |
| Oggi h: 08:30 | Molto Nuvoloso | 18 | 17 | 93 | 1009 | 10 | O 18 | |
| Oggi h: 08:27 | Molto Nuvoloso | 18 | 17 | 93 | 1009 | 10 | O 18 | |
| Oggi h: 08:00 | Molto Nuvoloso | 17 | 17 | 100 | 1009 | 10 | O/SO 10.8 | |
| Oggi h: 07:45 | Molto Nuvoloso | 17 | 17 | 100 | 1009 | 10 | O 14.4 | |
| Oggi h: 07:31 | Molto Nuvoloso | 17 | 17 | 100 | 1009 | 10 | O 18 | |
| Oggi h: 07:30 | Molto Nuvoloso | 17 | 17 | 100 | 1009 | 10 | O 14.4 | |
| Oggi h: 07:00 | Nuvoloso | 17 | 17 | 100 | 1009 | 10 | O 14.4 | |
| Oggi h: 06:30 | Poco Nuvoloso | 16 | 16 | 100 | 1009 | 10 | S 10.8 | |
| Oggi h: 06:00 | Poco Nuvoloso | 15 | 15 | 100 | 1009 | 10 | S 10.8 | |
| Oggi h: 05:30 | Poco Nuvoloso | 15 | 15 | 100 | 1009 | 10 | N 7.2 | |
| Oggi h: 05:00 | Nebbia | 15 | 15 | 100 | 1009 | 10 | N 7.2 | |
| Oggi h: 04:41 | Foschia | 14 | 14 | 100 | 1009 | 3 | N 7.2 | |
| Oggi h: 04:30 | Foschia | 15 | 15 | 100 | 1009 | 3 | S 10.8 | |
| Oggi h: 04:04 | Poco Nuvoloso | 17 | 17 | 100 | 1009 | 10 | S 10.8 | |
| Oggi h: 04:00 | Poco Nuvoloso | 17 | 17 | 100 | 1009 | 10 | N 7.2 | |
| Oggi h: 03:30 | Poco Nuvoloso | 17 | 17 | 100 | 1009 | 10 | N 7.2 | |
| Oggi h: 03:00 | Nuvoloso | 17 | 17 | 100 | 1009 | 10 | N 7.2 | |
| Oggi h: 02:30 | Molto Nuvoloso | 16 | 16 | 100 | 1009 | 10 | N 3.6 | |
| Oggi h: 02:00 | Molto Nuvoloso | 18 | 16 | 88 | 1010 | 10 | N 0 | |
| Oggi h: 01:52 | Molto Nuvoloso | 18 | 16 | 88 | 1010 | 10 | N 7.2 | |
| Oggi h: 01:35 | Temporale | 18 | 16 | 88 | 1010 | 10 | O 18 | |
| Oggi h: 01:30 | Temporale | 18 | 17 | 93 | 1010 | 10 | O/SO 10.8 | |
| Oggi h: 01:15 | Temporale | 17 | 17 | 100 | 1010 | 10 | N 3.6 | |
| Oggi h: 01:00 | Molto Nuvoloso | 17 | 17 | 100 | 1010 | 10 | N 3.6 | |
| Oggi h: 00:30 | Molto Nuvoloso | 18 | 18 | 100 | 1010 | 10 | N 3.6 | |
| Oggi h: 00:00 | Nuvoloso | 17 | 17 | 100 | 1010 | 10 | N 7.2 | |
| Ieri h: 23:30 | Nuvoloso | 17 | 17 | 100 | 1011 | 10 | N 3.6 | |
| Ieri h: 23:00 | Nuvoloso | 17 | 17 | 100 | 1011 | 10 | N 3.6 | |
| Ieri h: 22:30 | Nuvoloso | 18 | 18 | 100 | 1011 | 10 | N 7.2 | |
| Ieri h: 22:00 | Pioggia | 17 | 17 | 100 | 1011 | 10 | N 7.2 | |
| Ieri h: 21:30 | Sereno | 16 | 16 | 100 | 1011 | 10 | N 0 | |
| Ieri h: 21:00 | Sereno | 16 | 16 | 100 | 1011 | 10 | N 3.6 | |
| Ieri h: 20:30 | Sereno | 17 | 17 | 100 | 1011 | 10 | N 3.6 | |
| Ieri h: 20:00 | Sereno | 17 | 17 | 100 | 1011 | 10 | N 3.6 | |



